| time (UTC) | temp F | wind direction | speed knots | gust knots | rain 1hr in | rain 24hr in | rain mn in | humidity % | barometer mb |
| 20260510105411 | 47 | 284 | 0.0 | 0.0 | 0.00 | 0.02 | 0.02 | 93 | 1030.5 |
| 20260510104905 | 47 | 284 | 0.0 | 0.0 | 0.00 | 0.02 | 0.02 | 93 | 1030.5 |
| 20260510104404 | 47 | 284 | 0.0 | 0.0 | 0.00 | 0.02 | 0.02 | 93 | 1030.6 |
| 20260510103907 | 47 | 284 | 0.0 | 0.0 | 0.00 | 0.02 | 0.02 | 93 | 1030.6 |
| 20260510103406 | 47 | 284 | 0.0 | 0.0 | 0.00 | 0.02 | 0.02 | 92 | 1030.6 |
| 20260510102906 | 47 | 284 | 0.0 | 0.0 | 0.00 | 0.02 | 0.02 | 92 | 1030.6 |
| 20260510102406 | 47 | 284 | 0.0 | 0.0 | 0.00 | 0.02 | 0.02 | 92 | 1030.5 |
| 20260510101906 | 48 | 284 | 0.0 | 0.0 | 0.00 | 0.02 | 0.02 | 92 | 1030.5 |
| 20260510101647 | 48 | 284 | 0.0 | 0.0 | 0.00 | 0.02 | 0.02 | 91 | 1030.5 |
| 20260510101145 | 48 | 284 | 0.0 | 0.0 | 0.00 | 0.02 | 0.02 | 92 | 1030.5 |
| 20260510100710 | 48 | 284 | 0.0 | 0.0 | 0.00 | 0.02 | 0.02 | 91 | 1030.5 |
| 20260510095906 | 49 | 284 | 0.0 | 0.0 | 0.00 | 0.02 | 0.02 | 91 | 1030.5 |
| 20260510095406 | 49 | 284 | 0.0 | 0.0 | 0.00 | 0.02 | 0.02 | 91 | 1030.6 |
| 20260510095148 | 49 | 284 | 0.0 | 0.0 | 0.00 | 0.02 | 0.02 | 91 | 1030.5 |
| 20260510094406 | 49 | 284 | 0.0 | 0.0 | 0.00 | 0.02 | 0.02 | 91 | 1030.5 |
| 20260510094225 | 49 | 284 | 0.0 | 0.0 | 0.00 | 0.02 | 0.02 | 90 | 1030.5 |
| 20260510094220 | 49 | 284 | 0.0 | 0.0 | 0.00 | 0.02 | 0.02 | 90 | 1030.5 |
| 20260510092905 | 50 | 284 | 0.0 | 0.0 | 0.00 | 0.02 | 0.02 | 89 | 1030.5 |
| 20260510092712 | 51 | 284 | 0.0 | 0.0 | 0.00 | 0.02 | 0.02 | 88 | 1030.3 |
| 20260510092708 | 50 | 284 | 0.0 | 0.0 | 0.00 | 0.02 | 0.02 | 89 | 1030.4 |
| 20260510091406 | 51 | 284 | 0.0 | 0.0 | 0.00 | 0.02 | 0.02 | 88 | 1030.3 |
| 20260510090945 | 52 | 284 | 0.0 | 0.0 | 0.00 | 0.02 | 0.02 | 87 | 1030.2 |
| 20260510090934 | 51 | 284 | 0.0 | 0.0 | 0.00 | 0.02 | 0.02 | 87 | 1030.3 |
| 20260510085904 | 52 | 284 | 0.0 | 0.0 | 0.00 | 0.02 | 0.02 | 87 | 1029.9 |
| 20260510085404 | 52 | 284 | 0.0 | 0.0 | 0.00 | 0.02 | 0.02 | 86 | 1029.9 |
| 20260510084906 | 53 | 284 | 0.0 | 0.0 | 0.00 | 0.02 | 0.02 | 85 | 1029.9 |
| 20260510084406 | 53 | 284 | 0.0 | 0.0 | 0.00 | 0.02 | 0.02 | 85 | 1029.9 |
| 20260510083908 | 53 | 284 | 0.0 | 0.0 | 0.00 | 0.02 | 0.02 | 84 | 1029.9 |
| 20260510083646 | 54 | 284 | 0.0 | 0.0 | 0.00 | 0.02 | 0.02 | 83 | 1029.9 |
| 20260510082928 | 54 | 284 | 0.0 | 0.0 | 0.00 | 0.02 | 0.02 | 83 | 1029.9 |
| 20260510081908 | 55 | 284 | 0.0 | 0.0 | 0.00 | 0.02 | 0.02 | 82 | 1029.9 |
| 20260510081407 | 55 | 284 | 0.0 | 0.0 | 0.00 | 0.02 | 0.02 | 82 | 1029.9 |
| 20260510080905 | 55 | 284 | 0.0 | 0.0 | 0.00 | 0.02 | 0.02 | 82 | 1029.8 |
| 20260510080646 | 55 | 284 | 0.0 | 0.0 | 0.00 | 0.02 | 0.02 | 82 | 1029.8 |
| 20260510075906 | 55 | 284 | 0.0 | 0.0 | 0.00 | 0.02 | 0.02 | 82 | 1029.7 |
| 20260510075405 | 55 | 284 | 0.0 | 0.0 | 0.00 | 0.02 | 0.02 | 81 | 1029.6 |
| 20260510074910 | 55 | 284 | 0.0 | 0.0 | 0.00 | 0.02 | 0.02 | 81 | 1029.6 |
| 20260510074404 | 55 | 284 | 0.0 | 0.0 | 0.00 | 0.02 | 0.02 | 81 | 1029.6 |
| 20260510073905 | 55 | 284 | 0.0 | 0.0 | 0.00 | 0.02 | 0.02 | 81 | 1029.5 |
| 20260510073405 | 56 | 284 | 0.0 | 0.0 | 0.00 | 0.02 | 0.02 | 81 | 1029.5 |
| 20260510072904 | 56 | 284 | 0.0 | 0.0 | 0.00 | 0.02 | 0.02 | 80 | 1029.4 |
| 20260510072642 | 55 | 284 | 0.0 | 0.0 | 0.00 | 0.02 | 0.02 | 80 | 1029.4 |
| 20260510072141 | 56 | 284 | 0.0 | 0.0 | 0.00 | 0.02 | 0.02 | 80 | 1029.5 |
| 20260510071405 | 56 | 284 | 0.0 | 0.0 | 0.00 | 0.02 | 0.02 | 79 | 1029.5 |
| 20260510070904 | 56 | 284 | 0.0 | 0.0 | 0.00 | 0.02 | 0.02 | 80 | 1029.5 |
| 20260510070403 | 56 | 284 | 0.0 | 0.0 | 0.00 | 0.02 | 0.02 | 78 | 1029.4 |
| 20260510065905 | 56 | 284 | 0.0 | 0.0 | 0.00 | 0.02 | 0.02 | 78 | 1029.4 |
| 20260510065405 | 57 | 284 | 0.0 | 0.0 | 0.00 | 0.02 | 0.02 | 78 | 1029.3 |
| 20260510065151 | 57 | 284 | 0.0 | 0.0 | 0.00 | 0.02 | 0.02 | 77 | 1029.4 |
| 20260510064650 | 57 | 284 | 0.0 | 0.9 | 0.00 | 0.02 | 0.02 | 78 | 1029.3 |
| 20260510064148 | 57 | 284 | 0.0 | 0.9 | 0.00 | 0.02 | 0.02 | 78 | 1029.3 |
| 20260510063645 | 57 | 346 | 0.0 | 0.0 | 0.00 | 0.02 | 0.02 | 78 | 1029.3 |
| 20260510062903 | 57 | 346 | 0.0 | 0.0 | 0.00 | 0.02 | 0.02 | 78 | 1029.3 |
| 20260510062646 | 57 | 346 | 0.0 | 0.0 | 0.00 | 0.02 | 0.02 | 77 | 1029.3 |
| 20260510062152 | 57 | 346 | 0.0 | 0.0 | 0.00 | 0.02 | 0.02 | 77 | 1029.3 |
| 20260510061404 | 57 | 346 | 0.0 | 0.0 | 0.00 | 0.02 | 0.02 | 76 | 1029.3 |
| 20260510060910 | 57 | 346 | 0.0 | 0.0 | 0.00 | 0.02 | 0.02 | 75 | 1029.3 |
| 20260510060412 | 57 | 346 | 0.0 | 0.0 | 0.00 | 0.02 | 0.02 | 75 | 1029.0 |
| 20260510060153 | 57 | 316 | 0.0 | 0.0 | 0.00 | 0.02 | 0.02 | 75 | 1029.3 |
| 20260510055404 | 57 | 316 | 0.0 | 0.0 | 0.00 | 0.02 | 0.02 | 76 | 1029.3 |
| 20260510054905 | 57 | 316 | 0.0 | 0.0 | 0.00 | 0.02 | 0.02 | 75 | 1029.3 |
| 20260510054713 | 57 | 316 | 0.0 | 0.0 | 0.00 | 0.02 | 0.02 | 75 | 1029.3 |
| 20260510054708 | 57 | 316 | 0.0 | 0.0 | 0.00 | 0.02 | 0.02 | 75 | 1029.3 |
| 20260510053354 | 57 | 316 | 0.0 | 0.0 | 0.00 | 0.02 | 0.02 | 76 | 1029.1 |
| 20260510052842 | 57 | 316 | 0.0 | 0.0 | 0.00 | 0.02 | 0.02 | 77 | 1029.0 |
| 20260510052340 | 57 | 316 | 0.0 | 0.0 | 0.00 | 0.02 | 0.02 | 76 | 1029.1 |
| 20260510051832 | 57 | 316 | 0.0 | 0.0 | 0.00 | 0.02 | 0.02 | 76 | 1029.3 |
| 20260510051612 | 57 | 316 | 0.0 | 0.0 | 0.00 | 0.02 | 0.02 | 74 | 1029.3 |
| 20260510050833 | 57 | 316 | 0.0 | 0.0 | 0.00 | 0.02 | 0.02 | 75 | 1029.4 |
| 20260510050618 | 57 | 316 | 0.0 | 0.0 | 0.00 | 0.02 | 0.02 | 77 | 1029.4 |
| 20260510045832 | 57 | 316 | 0.0 | 0.0 | 0.00 | 0.02 | 0.02 | 76 | 1029.4 |
| 20260510045331 | 57 | 316 | 0.0 | 0.0 | 0.00 | 0.02 | 0.02 | 75 | 1029.3 |
| 20260510044831 | 57 | 316 | 0.0 | 0.0 | 0.00 | 0.02 | 0.02 | 76 | 1029.3 |
| 20260510044331 | 57 | 316 | 0.0 | 0.0 | 0.00 | 0.02 | 0.02 | 76 | 1029.4 |
| 20260510043831 | 57 | 316 | 0.0 | 0.0 | 0.00 | 0.02 | 0.02 | 75 | 1029.3 |
| 20260510043619 | 57 | 316 | 0.0 | 0.0 | 0.00 | 0.02 | 0.02 | 78 | 1029.4 |
| 20260510043010 | 57 | 316 | 0.0 | 0.0 | 0.00 | 0.02 | 0.02 | 78 | 1029.3 |
| 20260510043000 | 56 | 316 | 0.0 | 0.0 | 0.00 | 0.02 | 0.02 | 77 | 1029.3 |
| 20260510042937 | 57 | 316 | 0.0 | 0.0 | 0.00 | 0.02 | 0.02 | 79 | 1029.3 |
| 20260510042129 | 56 | 316 | 0.0 | 0.0 | 0.00 | 0.02 | 0.02 | 77 | 1029.3 |
| 20260510040834 | 57 | 316 | 0.0 | 0.0 | 0.00 | 0.02 | 0.02 | 76 | 1029.4 |
| 20260510040332 | 57 | 316 | 0.0 | 0.0 | 0.00 | 0.02 | 0.02 | 76 | 1029.4 |
| 20260510035833 | 57 | 316 | 0.0 | 0.0 | 0.00 | 0.02 | 0.02 | 75 | 1029.4 |
| 20260510035610 | 57 | 316 | 0.0 | 0.0 | 0.00 | 0.02 | 0.02 | 76 | 1029.4 |
| 20260510034832 | 57 | 316 | 0.0 | 0.0 | 0.00 | 0.02 | 0.02 | 76 | 1029.5 |
| 20260510034612 | 57 | 316 | 0.0 | 0.9 | 0.00 | 0.02 | 0.02 | 76 | 1029.6 |
| 20260510033832 | 57 | 316 | 0.0 | 0.9 | 0.00 | 0.02 | 0.02 | 76 | 1029.6 |
| 20260510033613 | 57 | 5 | 0.0 | 0.0 | 0.00 | 0.02 | 0.02 | 76 | 1029.6 |
| 20260510033125 | 57 | 5 | 0.0 | 0.0 | 0.00 | 0.02 | 0.02 | 76 | 1029.7 |
| 20260510032359 | 57 | 5 | 0.0 | 0.0 | 0.00 | 0.02 | 0.02 | 79 | 1029.8 |
| 20260510032348 | 57 | 5 | 0.0 | 0.0 | 0.00 | 0.02 | 0.02 | 76 | 1029.7 |
| 20260510031330 | 56 | 5 | 0.0 | 0.0 | 0.00 | 0.02 | 0.02 | 80 | 1029.9 |
| 20260510030831 | 56 | 5 | 0.0 | 0.0 | 0.00 | 0.02 | 0.02 | 79 | 1030.0 |
| 20260510030331 | 56 | 5 | 0.0 | 0.0 | 0.00 | 0.02 | 0.02 | 79 | 1030.1 |
| 20260510030122 | 56 | 5 | 0.0 | 0.0 | 0.00 | 0.02 | 0.02 | 80 | 1030.2 |
| 20260510025633 | 56 | 5 | 0.0 | 0.0 | 0.00 | 0.02 | 0.02 | 79 | 1030.3 |
| 20260510024831 | 56 | 5 | 0.0 | 0.0 | 0.00 | 0.02 | 0.02 | 79 | 1030.3 |
| 20260510024330 | 55 | 5 | 0.0 | 0.0 | 0.00 | 0.02 | 0.02 | 80 | 1030.4 |
| 20260510023851 | 55 | 5 | 0.0 | 0.0 | 0.00 | 0.02 | 0.02 | 80 | 1030.5 |
| 20260510022833 | 55 | 5 | 0.0 | 0.0 | 0.00 | 0.02 | 0.02 | 80 | 1030.5 |
| 20260510022631 | 56 | 5 | 0.0 | 0.0 | 0.00 | 0.02 | 0.02 | 81 | 1030.6 |
| 20260510021834 | 55 | 5 | 0.0 | 0.0 | 0.00 | 0.02 | 0.02 | 81 | 1030.6 |
| 20260510021335 | 55 | 5 | 0.0 | 0.0 | 0.00 | 0.02 | 0.02 | 82 | 1030.6 |
| 20260510020833 | 55 | 5 | 0.0 | 0.0 | 0.00 | 0.02 | 0.02 | 82 | 1030.6 |
| 20260510020333 | 55 | 5 | 0.0 | 0.0 | 0.00 | 0.02 | 0.02 | 82 | 1030.7 |
| 20260510020112 | 55 | 5 | 0.0 | 0.0 | 0.00 | 0.02 | 0.02 | 83 | 1030.7 |
| 20260510015333 | 55 | 5 | 0.0 | 0.0 | 0.00 | 0.02 | 0.02 | 81 | 1030.8 |
| 20260510014833 | 55 | 5 | 0.0 | 0.0 | 0.00 | 0.02 | 0.02 | 81 | 1030.8 |
| 20260510014333 | 55 | 5 | 0.0 | 0.0 | 0.00 | 0.02 | 0.02 | 81 | 1030.8 |
| 20260510014115 | 55 | 5 | 0.0 | 0.0 | 0.00 | 0.02 | 0.02 | 81 | 1030.8 |
| 20260510013333 | 55 | 5 | 0.0 | 0.0 | 0.00 | 0.02 | 0.02 | 82 | 1030.8 |
| 20260510012916 | 55 | 5 | 0.0 | 1.7 | 0.00 | 0.02 | 0.02 | 83 | 1030.8 |
| 20260510012901 | 55 | 5 | 0.0 | 0.0 | 0.00 | 0.02 | 0.02 | 83 | 1030.8 |
| 20260510011912 | 55 | 135 | 0.0 | 1.7 | 0.00 | 0.02 | 0.02 | 84 | 1030.8 |
| 20260510011638 | 55 | 59 | 0.0 | 0.0 | 0.00 | 0.02 | 0.02 | 85 | 1030.7 |
| 20260510010620 | 55 | 59 | 0.0 | 0.0 | 0.00 | 0.02 | 0.02 | 85 | 1030.7 |
| 20260510005833 | 54 | 59 | 0.0 | 0.0 | 0.00 | 0.02 | 0.02 | 88 | 1030.8 |
| 20260510005333 | 54 | 59 | 0.0 | 0.0 | 0.00 | 0.02 | 0.02 | 87 | 1030.8 |
| 20260510004832 | 54 | 59 | 0.0 | 0.0 | 0.00 | 0.02 | 0.02 | 88 | 1030.8 |
| 20260510004339 | 54 | 59 | 0.0 | 0.0 | 0.00 | 0.02 | 0.02 | 89 | 1030.7 |
| 20260510003833 | 54 | 59 | 0.0 | 0.0 | 0.00 | 0.02 | 0.02 | 90 | 1030.7 |
| 20260510003333 | 54 | 59 | 0.0 | 0.9 | 0.00 | 0.02 | 0.02 | 89 | 1030.8 |
| 20260510003116 | 54 | 59 | 0.0 | 0.9 | 0.00 | 0.02 | 0.02 | 89 | 1030.8 |
| 20260510002334 | 54 | 323 | 0.0 | 0.0 | 0.00 | 0.02 | 0.02 | 89 | 1030.8 |
| 20260510002042 | 54 | 323 | 0.0 | 0.0 | 0.00 | 0.02 | 0.02 | 90 | 1030.8 |
| 20260510001309 | 54 | 323 | 0.0 | 0.0 | 0.00 | 0.02 | 0.02 | 91 | 1030.8 |
| 20260510000808 | 53 | 323 | 0.0 | 0.0 | 0.00 | 0.02 | 0.02 | 92 | 1030.9 |
| 20260510000311 | 53 | 323 | 0.0 | 0.0 | 0.00 | 0.02 | 0.02 | 93 | 1030.9 |
| 20260509235836 | 53 | 323 | 0.0 | 0.0 | 0.00 | 0.02 | 0.02 | 94 | 1030.9 |
| 20260509235825 | 53 | 323 | 0.0 | 0.0 | 0.00 | 0.02 | 0.02 | 93 | 1030.9 |
| 20260509234807 | 53 | 323 | 0.0 | 0.0 | 0.00 | 0.02 | 0.02 | 94 | 1030.9 |
| 20260509234308 | 53 | 319 | 0.0 | 0.0 | 0.00 | 0.02 | 0.02 | 95 | 1030.9 |
| 20260509233809 | 52 | 319 | 0.0 | 0.0 | 0.00 | 0.02 | 0.02 | 95 | 1030.9 |
| 20260509233309 | 53 | 319 | 0.0 | 0.0 | 0.00 | 0.02 | 0.02 | 95 | 1031.0 |
| 20260509232809 | 53 | 319 | 0.0 | 0.0 | 0.00 | 0.02 | 0.02 | 96 | 1031.0 |
| 20260509232552 | 52 | 319 | 0.0 | 0.0 | 0.00 | 0.02 | 0.02 | 96 | 1031.0 |
| 20260509232048 | 52 | 319 | 0.0 | 0.0 | 0.00 | 0.02 | 0.02 | 96 | 1031.2 |
| 20260509231308 | 52 | 291 | 0.0 | 0.0 | 0.00 | 0.02 | 0.02 | 96 | 1031.2 |
| 20260509230808 | 52 | 291 | 0.0 | 0.0 | 0.00 | 0.02 | 0.02 | 96 | 1031.0 |
| 20260509230308 | 52 | 291 | 0.0 | 0.0 | 0.00 | 0.02 | 0.02 | 96 | 1030.9 |
| 20260509225808 | 52 | 291 | 0.0 | 0.0 | 0.00 | 0.02 | 0.02 | 96 | 1030.9 |
| 20260509225315 | 52 | 291 | 0.0 | 0.0 | 0.00 | 0.02 | 0.02 | 96 | 1030.8 |
| 20260509224810 | 52 | 291 | 0.0 | 0.0 | 0.00 | 0.02 | 0.02 | 97 | 1030.8 |
| 20260509224307 | 51 | 291 | 0.0 | 0.0 | 0.00 | 0.02 | 0.02 | 96 | 1030.8 |
| 20260509223807 | 51 | 291 | 0.0 | 0.0 | 0.00 | 0.02 | 0.02 | 96 | 1030.7 |
| 20260509223308 | 51 | 291 | 0.0 | 0.0 | 0.00 | 0.02 | 0.02 | 96 | 1030.6 |
| 20260509222807 | 51 | 291 | 0.0 | 0.0 | 0.00 | 0.02 | 0.02 | 96 | 1030.5 |
| 20260509222307 | 51 | 291 | 0.0 | 0.0 | 0.00 | 0.02 | 0.02 | 96 | 1030.4 |
| 20260509221807 | 51 | 291 | 0.0 | 0.0 | 0.00 | 0.02 | 0.02 | 96 | 1030.3 |
| 20260509221308 | 51 | 291 | 0.0 | 0.0 | 0.00 | 0.02 | 0.02 | 96 | 1030.3 |
| 20260509220807 | 51 | 291 | 0.0 | 0.0 | 0.00 | 0.02 | 0.02 | 96 | 1030.3 |
| 20260509220546 | 51 | 291 | 0.0 | 0.0 | 0.00 | 0.02 | 0.02 | 96 | 1030.2 |
| 20260509220053 | 51 | 291 | 0.0 | 0.0 | 0.00 | 0.02 | 0.02 | 96 | 1030.2 |
| 20260509215307 | 51 | 291 | 0.0 | 0.0 | 0.00 | 0.02 | 0.02 | 96 | 1030.1 |
| 20260509214806 | 51 | 291 | 0.0 | 0.0 | 0.00 | 0.02 | 0.02 | 96 | 1030.1 |
| 20260509214307 | 51 | 291 | 0.0 | 0.0 | 0.00 | 0.02 | 0.02 | 96 | 1030.1 |
| 20260509214050 | 51 | 291 | 0.0 | 0.0 | 0.00 | 0.02 | 0.02 | 96 | 1030.1 |
| 20260509213306 | 51 | 291 | 0.0 | 0.0 | 0.00 | 0.02 | 0.02 | 96 | 1030.0 |
| 20260509212807 | 51 | 291 | 0.0 | 0.0 | 0.00 | 0.02 | 0.02 | 96 | 1030.0 |
| 20260509212312 | 51 | 291 | 0.0 | 0.0 | 0.00 | 0.02 | 0.02 | 96 | 1029.9 |
| 20260509211805 | 51 | 291 | 0.0 | 0.0 | 0.00 | 0.02 | 0.02 | 96 | 1029.9 |
| 20260509211541 | 51 | 291 | 0.0 | 0.0 | 0.00 | 0.02 | 0.02 | 96 | 1029.8 |
| 20260509210807 | 51 | 291 | 0.0 | 0.0 | 0.00 | 0.02 | 0.02 | 96 | 1029.8 |
| 20260509210307 | 51 | 291 | 0.0 | 0.0 | 0.00 | 0.02 | 0.02 | 96 | 1029.7 |
| 20260509210042 | 51 | 291 | 0.0 | 0.0 | 0.00 | 0.02 | 0.02 | 96 | 1029.8 |
| 20260509205307 | 51 | 291 | 0.0 | 0.0 | 0.00 | 0.02 | 0.02 | 96 | 1029.6 |
| 20260509204808 | 51 | 291 | 0.0 | 0.0 | 0.00 | 0.02 | 0.02 | 96 | 1029.7 |
| 20260509204305 | 51 | 291 | 0.0 | 0.0 | 0.00 | 0.02 | 0.02 | 96 | 1029.6 |
| 20260509203808 | 51 | 291 | 0.0 | 0.0 | 0.00 | 0.02 | 0.02 | 96 | 1029.5 |
| 20260509203307 | 51 | 291 | 0.0 | 0.0 | 0.00 | 0.02 | 0.02 | 96 | 1029.5 |
| 20260509202806 | 51 | 291 | 0.0 | 0.0 | 0.00 | 0.02 | 0.02 | 96 | 1029.5 |
| 20260509202307 | 51 | 291 | 0.0 | 0.0 | 0.00 | 0.02 | 0.02 | 96 | 1029.5 |
| 20260509201857 | 51 | 291 | 0.0 | 0.0 | 0.00 | 0.02 | 0.02 | 96 | 1028.7 |
| 20260509201828 | 51 | 291 | 0.0 | 0.0 | 0.00 | 0.02 | 0.02 | 96 | 1029.5 |
| 20260509200805 | 51 | 291 | 0.0 | 0.0 | 0.00 | 0.02 | 0.02 | 96 | 1029.4 |
| 20260509200308 | 51 | 291 | 0.0 | 0.0 | 0.00 | 0.02 | 0.02 | 96 | 1029.4 |
| 20260509195807 | 51 | 291 | 0.0 | 0.0 | 0.01 | 0.02 | 0.02 | 96 | 1029.4 |
| 20260509195552 | 51 | 291 | 0.0 | 0.9 | 0.01 | 0.02 | 0.02 | 96 | 1029.4 |
| 20260509194805 | 51 | 291 | 0.0 | 0.9 | 0.01 | 0.02 | 0.02 | 96 | 1029.4 |
| 20260509194614 | 51 | 311 | 0.0 | 0.0 | 0.02 | 0.02 | 0.02 | 96 | 1029.3 |
| 20260509194609 | 51 | 332 | 0.0 | 0.0 | 0.01 | 0.02 | 0.02 | 96 | 1029.3 |
| 20260509193311 | 51 | 311 | 0.0 | 0.0 | 0.02 | 0.02 | 0.02 | 96 | 1029.2 |
| 20260509192805 | 51 | 311 | 0.0 | 0.0 | 0.02 | 0.02 | 0.02 | 96 | 1029.1 |
| 20260509192306 | 51 | 311 | 0.0 | 0.0 | 0.02 | 0.02 | 0.02 | 96 | 1029.1 |
| 20260509191806 | 51 | 311 | 0.0 | 0.0 | 0.02 | 0.02 | 0.02 | 96 | 1029.0 |
| 20260509191307 | 51 | 311 | 0.0 | 0.0 | 0.02 | 0.02 | 0.02 | 96 | 1029.0 |
| 20260509190806 | 51 | 311 | 0.0 | 0.0 | 0.02 | 0.02 | 0.02 | 96 | 1028.8 |
| 20260509190344 | 51 | 311 | 0.0 | 0.0 | 0.02 | 0.02 | 0.02 | 96 | 1028.7 |
| 20260509190328 | 51 | 311 | 0.0 | 0.0 | 0.02 | 0.02 | 0.02 | 96 | 1028.7 |
| 20260509185544 | 51 | 311 | 0.0 | 0.0 | 0.02 | 0.02 | 0.02 | 96 | 1028.6 |
| 20260509185049 | 51 | 311 | 0.0 | 0.0 | 0.02 | 0.02 | 0.02 | 96 | 1028.6 |
| 20260509184307 | 51 | 311 | 0.0 | 0.0 | 0.02 | 0.02 | 0.02 | 96 | 1028.5 |
| 20260509184045 | 51 | 311 | 0.0 | 0.0 | 0.01 | 0.01 | 0.01 | 96 | 1028.5 |
| 20260509183337 | 51 | 311 | 0.0 | 0.0 | 0.01 | 0.01 | 0.01 | 96 | 1028.5 |
| 20260509183326 | 51 | 311 | 0.0 | 0.0 | 0.01 | 0.01 | 0.01 | 96 | 1028.5 |
| 20260509182550 | 51 | 311 | 0.0 | 0.0 | 0.01 | 0.01 | 0.01 | 96 | 1028.5 |
| 20260509181900 | 52 | 311 | 0.0 | 0.0 | 0.01 | 0.01 | 0.00 | 96 | 1028.5 |
| 20260509181626 | 51 | 311 | 0.0 | 0.0 | 0.00 | 0.00 | 0.00 | 96 | 1028.5 |
| 20260509180307 | 51 | 311 | 0.0 | 0.0 | 0.00 | 0.00 | 0.00 | 96 | 1028.5 |
| 20260509180049 | 51 | 311 | 0.0 | 0.0 | 0.00 | 0.00 | 0.00 | 96 | 1028.5 |
| 20260509175309 | 51 | 311 | 0.0 | 0.0 | 0.00 | 0.00 | 0.00 | 96 | 1028.6 |
| 20260509174809 | 51 | 311 | 0.0 | 0.0 | 0.00 | 0.00 | 0.00 | 96 | 1028.6 |
| 20260509174308 | 51 | 311 | 0.0 | 0.0 | 0.00 | 0.00 | 0.00 | 96 | 1028.7 |
| 20260509173809 | 51 | 311 | 0.0 | 0.0 | 0.00 | 0.00 | 0.00 | 96 | 1028.7 |
| 20260509173550 | 51 | 311 | 0.0 | 0.0 | 0.00 | 0.00 | 0.00 | 96 | 1028.7 |
| 20260509172812 | 51 | 311 | 0.0 | 0.9 | 0.00 | 0.00 | 0.00 | 96 | 1028.7 |
| 20260509172543 | 51 | 5 | 0.0 | 0.9 | 0.00 | 0.00 | 0.00 | 96 | 1028.7 |
| 20260509171809 | 51 | 302 | 0.0 | 0.9 | 0.00 | 0.00 | 0.00 | 95 | 1028.7 |
| 20260509171542 | 51 | 334 | 0.0 | 0.0 | 0.00 | 0.00 | 0.00 | 96 | 1028.7 |
| 20260509170808 | 51 | 337 | 0.0 | 0.0 | 0.00 | 0.00 | 0.00 | 96 | 1028.8 |
| 20260509170308 | 51 | 337 | 0.0 | 0.0 | 0.00 | 0.00 | 0.00 | 96 | 1028.8 |
| 20260509165808 | 51 | 244 | 0.0 | 0.0 | 0.00 | 0.00 | 0.00 | 96 | 1028.7 |
| 20260509165308 | 51 | 244 | 0.0 | 0.0 | 0.00 | 0.00 | 0.00 | 96 | 1028.8 |
| 20260509164806 | 51 | 244 | 0.0 | 0.9 | 0.00 | 0.00 | 0.00 | 96 | 1028.8 |
| 20260509164557 | 51 | 244 | 0.0 | 0.9 | 0.00 | 0.00 | 0.00 | 96 | 1029.0 |
| 20260509163807 | 51 | 265 | 0.0 | 0.0 | 0.00 | 0.00 | 0.00 | 96 | 1028.8 |
| 20260509163308 | 51 | 306 | 0.0 | 0.0 | 0.00 | 0.00 | 0.00 | 96 | 1029.0 |
| 20260509162808 | 51 | 306 | 0.0 | 0.0 | 0.00 | 0.00 | 0.00 | 96 | 1029.0 |
| 20260509162307 | 51 | 306 | 0.0 | 0.9 | 0.00 | 0.00 | 0.00 | 96 | 1029.1 |
| 20260509161807 | 51 | 306 | 0.0 | 0.9 | 0.00 | 0.00 | 0.00 | 96 | 1029.1 |
| 20260509161307 | 51 | 322 | 0.0 | 0.0 | 0.00 | 0.00 | 0.00 | 95 | 1029.2 |
| 20260509161054 | 51 | 322 | 0.0 | 0.0 | 0.00 | 0.00 | 0.00 | 96 | 1029.3 |
| 20260509160307 | 51 | 322 | 0.0 | 0.0 | 0.00 | 0.00 | 0.00 | 96 | 1029.3 |
| 20260509155813 | 51 | 322 | 0.0 | 0.0 | 0.00 | 0.00 | 0.00 | 96 | 1029.3 |
| 20260509155306 | 51 | 322 | 0.0 | 0.0 | 0.00 | 0.00 | 0.00 | 96 | 1029.3 |
| 20260509154807 | 51 | 322 | 0.0 | 0.0 | 0.00 | 0.00 | 0.00 | 96 | 1029.3 |
| 20260509154307 | 51 | 322 | 0.0 | 0.0 | 0.00 | 0.00 | 0.00 | 96 | 1029.3 |
| 20260509153807 | 51 | 322 | 0.0 | 0.0 | 0.00 | 0.00 | 0.00 | 96 | 1029.3 |
| 20260509153308 | 51 | 322 | 0.0 | 0.0 | 0.00 | 0.00 | 0.00 | 96 | 1029.4 |
| 20260509152808 | 51 | 322 | 0.0 | 0.0 | 0.00 | 0.00 | 0.00 | 96 | 1029.3 |
| 20260509152307 | 51 | 322 | 0.0 | 0.0 | 0.00 | 0.00 | 0.00 | 96 | 1029.3 |
| 20260509151840 | 51 | 322 | 0.0 | 0.0 | 0.00 | 0.00 | 0.00 | 96 | 1029.3 |
| 20260509151824 | 51 | 322 | 0.0 | 0.0 | 0.00 | 0.00 | 0.00 | 95 | 1029.3 |
| 20260509150807 | 51 | 322 | 0.0 | 0.0 | 0.00 | 0.00 | 0.00 | 95 | 1029.3 |
| 20260509150541 | 51 | 322 | 0.0 | 0.9 | 0.00 | 0.00 | 0.00 | 95 | 1029.4 |
| 20260509145806 | 51 | 322 | 0.0 | 0.9 | 0.00 | 0.00 | 0.00 | 95 | 1029.4 |
| 20260509145307 | 51 | 346 | 0.0 | 0.0 | 0.00 | 0.00 | 0.00 | 95 | 1029.4 |
| 20260509144807 | 51 | 346 | 0.0 | 0.0 | 0.00 | 0.00 | 0.00 | 95 | 1029.5 |
| 20260509144304 | 51 | 346 | 0.0 | 0.9 | 0.00 | 0.00 | 0.00 | 95 | 1029.5 |
| 20260509144049 | 51 | 346 | 0.0 | 0.9 | 0.00 | 0.00 | 0.00 | 95 | 1029.6 |
| 20260509143306 | 51 | 305 | 0.0 | 0.9 | 0.00 | 0.00 | 0.00 | 95 | 1029.6 |
| 20260509142806 | 51 | 286 | 0.0 | 0.9 | 0.00 | 0.00 | 0.00 | 96 | 1029.7 |
| 20260509142307 | 51 | 286 | 0.0 | 0.9 | 0.00 | 0.00 | 0.00 | 95 | 1029.7 |
| 20260509141824 | 51 | 36 | 0.0 | 0.0 | 0.00 | 0.00 | 0.00 | 96 | 1029.6 |
| 20260509141056 | 51 | 330 | 0.0 | 0.0 | 0.00 | 0.00 | 0.00 | 96 | 1029.6 |
| 20260509140307 | 51 | 330 | 0.0 | 0.0 | 0.00 | 0.00 | 0.00 | 95 | 1029.6 |
| 20260509135806 | 50 | 330 | 0.0 | 0.0 | 0.00 | 0.00 | 0.00 | 96 | 1029.6 |
| 20260509135306 | 50 | 330 | 0.0 | 0.0 | 0.00 | 0.00 | 0.00 | 96 | 1029.6 |
| 20260509134808 | 50 | 330 | 0.0 | 0.0 | 0.00 | 0.00 | 0.00 | 96 | 1029.6 |
| 20260509134542 | 50 | 330 | 0.0 | 0.0 | 0.00 | 0.00 | 0.00 | 96 | 1029.7 |
| 20260509133806 | 50 | 330 | 0.0 | 0.0 | 0.00 | 0.00 | 0.00 | 95 | 1029.7 |
| 20260509133308 | 50 | 330 | 0.0 | 0.0 | 0.00 | 0.00 | 0.00 | 95 | 1029.7 |
| 20260509132804 | 50 | 330 | 0.0 | 0.0 | 0.00 | 0.00 | 0.00 | 96 | 1029.7 |
| 20260509132543 | 49 | 330 | 0.0 | 0.0 | 0.00 | 0.00 | 0.00 | 96 | 1029.7 |
| 20260509131807 | 49 | 330 | 0.0 | 0.0 | 0.00 | 0.00 | 0.00 | 96 | 1029.7 |
| 20260509131306 | 48 | 330 | 0.0 | 0.0 | 0.00 | 0.00 | 0.00 | 96 | 1029.7 |
| 20260509130808 | 47 | 330 | 0.0 | 0.0 | 0.00 | 0.00 | 0.00 | 95 | 1029.8 |
| 20260509130308 | 47 | 330 | 0.0 | 0.0 | 0.00 | 0.00 | 0.00 | 95 | 1029.8 |
| 20260509125809 | 47 | 330 | 0.0 | 0.0 | 0.00 | 0.00 | 0.00 | 95 | 1029.9 |
| 20260509125308 | 46 | 330 | 0.0 | 0.0 | 0.00 | 0.00 | 0.00 | 95 | 1029.9 |
| 20260509124807 | 47 | 330 | 0.0 | 0.0 | 0.00 | 0.00 | 0.00 | 95 | 1029.9 |
| 20260509124548 | 47 | 330 | 0.0 | 0.0 | 0.00 | 0.00 | 0.00 | 95 | 1029.9 |
| 20260509123809 | 46 | 330 | 0.0 | 0.0 | 0.00 | 0.00 | 0.00 | 95 | 1029.9 |
| 20260509123308 | 46 | 330 | 0.0 | 0.0 | 0.00 | 0.00 | 0.00 | 95 | 1029.9 |
| 20260509122807 | 46 | 330 | 0.0 | 0.0 | 0.00 | 0.00 | 0.00 | 95 | 1029.9 |
| 20260509122309 | 46 | 330 | 0.0 | 0.0 | 0.00 | 0.00 | 0.00 | 94 | 1029.8 |
| 20260509121809 | 47 | 330 | 0.0 | 0.0 | 0.00 | 0.00 | 0.00 | 94 | 1029.8 |
| 20260509121314 | 47 | 330 | 0.0 | 0.0 | 0.00 | 0.00 | 0.00 | 94 | 1029.8 |
| 20260509120810 | 47 | 330 | 0.0 | 0.0 | 0.00 | 0.00 | 0.00 | 94 | 1029.7 |
| 20260509120306 | 47 | 330 | 0.0 | 0.0 | 0.00 | 0.00 | 0.00 | 94 | 1029.8 |
| 20260509115807 | 47 | 330 | 0.0 | 0.0 | 0.00 | 0.00 | 0.00 | 94 | 1029.8 |
| 20260509115543 | 47 | 330 | 0.0 | 0.0 | 0.00 | 0.00 | 0.00 | 94 | 1029.8 |
| 20260509114808 | 48 | 330 | 0.0 | 0.0 | 0.00 | 0.00 | 0.00 | 94 | 1029.7 |
| 20260509114308 | 48 | 330 | 0.0 | 0.0 | 0.00 | 0.00 | 0.00 | 94 | 1029.8 |
| 20260509113808 | 48 | 330 | 0.0 | 0.0 | 0.00 | 0.00 | 0.00 | 94 | 1029.8 |
| 20260509113308 | 49 | 330 | 0.0 | 0.0 | 0.00 | 0.00 | 0.00 | 94 | 1029.8 |
| 20260509112809 | 49 | 330 | 0.0 | 0.0 | 0.00 | 0.00 | 0.00 | 94 | 1029.8 |
| 20260509112307 | 49 | 330 | 0.0 | 0.0 | 0.00 | 0.00 | 0.00 | 94 | 1029.8 |
| 20260509111807 | 49 | 330 | 0.0 | 0.0 | 0.00 | 0.00 | 0.00 | 94 | 1029.7 |
| 20260509111308 | 50 | 330 | 0.0 | 0.0 | 0.00 | 0.00 | 0.00 | 93 | 1029.7 |
| 20260509110805 | 50 | 330 | 0.0 | 0.0 | 0.00 | 0.00 | 0.00 | 94 | 1029.6 |
| 20260509110320 | 51 | 330 | 0.0 | 0.0 | 0.00 | 0.00 | 0.00 | 93 | 1029.6 |
| 20260509105808 | 51 | 330 | 0.0 | 0.0 | 0.00 | 0.00 | 0.00 | 93 | 1029.6 |